When you browse on this site, cookies collect data to enhance your experience and personalize the content and advertising you see.
Visit our Privacy Policy to learn more. By continuing to use the site, you agree to this use of cookies and data.
  • In Czech Republic
  • List of Countries
  • For 7 days
  • Water Temperature
  • Satellite Maps
  • Weather Map
  • Weather Widgets
  • user-avatar
    Login

    Hourly Weather Weirton

    Today, 22 April, Monday

    Time Temperature Precipitation Wind Pressure Humidity
    00:00 +6°C° 0 mm 0 mps 743 mmHg 93%
    01:00 +6°C° 0 mm 0 mps 743 mmHg 94%
    02:00 +6°C° 0 mm 0 mps 743 mmHg 94%
    03:00 +5°C° 0 mm 0 mps 743 mmHg 95%
    04:00 +5°C° 0 mm 0 mps 743 mmHg 95%
    05:00 +6°C° 0 mm 0 mps 743 mmHg 93%
    06:00 +7°C° 0 mm 0 mps 744 mmHg 91%
    07:00 +8°C° 0 mm 0 mps 744 mmHg 89%
    08:00 +11°C° 0 mm 0 mps 744 mmHg 78%
    09:00 +14°C° 0 mm 0 mps 744 mmHg 68%
    10:00 +17°C° 0 mm 0 mps 744 mmHg 58%
    11:00 +18°C° 0 mm 0 mps 744 mmHg 54%
    12:00 +22°C° 0 mm 1 mps 744 mmHg 50%
    13:00 +23°C° 0 mm 1 mps 743 mmHg 46%
    14:00 +23°C° 0 mm 1 mps 743 mmHg 46%
    15:00 +23°C° 0 mm 1 mps 742 mmHg 47%
    16:00 +23°C° 0 mm 1 mps 742 mmHg 47%
    17:00 +21°C° 0 mm 1 mps 741 mmHg 54%
    18:00 +17°C° 0 mm 0 mps 741 mmHg 61%
    19:00 +15°C° 0 mm 0 mps 741 mmHg 68%
    20:00 +15°C° 0 mm 1 mps 741 mmHg 71%
    21:00 +14°C° 0 mm 1 mps 741 mmHg 74%
    22:00 +13°C° 0 mm 1 mps 741 mmHg 78%
    23:00 +13°C° 0 mm 1 mps 741 mmHg 80%

    Tomorrow, 23 April, Tuesday

    Time Temperature Precipitation Wind Pressure Humidity
    00:00 +13°C° 0 mm 1 mps 741 mmHg 82%
    01:00 +12°C° 0 mm 1 mps 741 mmHg 84%
    02:00 +12°C° 0 mm 1 mps 740 mmHg 83%
    03:00 +13°C° 0 mm 1 mps 740 mmHg 81%
    04:00 +13°C° 0 mm 2 mps 740 mmHg 80%
    05:00 +13°C° 0 mm 2 mps 739 mmHg 79%
    06:00 +12°C° 0 mm 3 mps 739 mmHg 78%
    07:00 +13°C° 0 mm 3 mps 739 mmHg 78%
    08:00 +15°C° 0 mm 4 mps 738 mmHg 71%
    09:00 +19°C° 0 mm 5 mps 738 mmHg 64%
    10:00 +22°C° 0 mm 5 mps 738 mmHg 57%
    11:00 +22°C° 0.6 mm 5 mps 737 mmHg 62%
    12:00 +22°C° 0.6 mm 5 mps 737 mmHg 68%
    13:00 +22°C° 0.6 mm 5 mps 736 mmHg 73%
    14:00 +21°C° 1 mm 5 mps 736 mmHg 79%
    15:00 +19°C° 1 mm 5 mps 736 mmHg 85%
    16:00 +18°C° 1 mm 4 mps 735 mmHg 91%
    17:00 +18°C° 0.1 mm 4 mps 735 mmHg 90%
    18:00 +17°C° 0.1 mm 4 mps 735 mmHg 89%
    19:00 +17°C° 0.1 mm 4 mps 735 mmHg 89%
    20:00 +14°C° 0 mm 3 mps 736 mmHg 89%
    21:00 +13°C° 0 mm 3 mps 736 mmHg 90%
    22:00 +12°C° 0 mm 3 mps 736 mmHg 91%
    23:00 +11°C° 0 mm 3 mps 736 mmHg 92%

    Day after tomorrow, 24 April, Wednesday

    Time Temperature Precipitation Wind Pressure Humidity
    00:00 +10°C° 0 mm 2 mps 736 mmHg 93%
    01:00 +9°C° 0 mm 2 mps 736 mmHg 94%
    02:00 +8°C° 0 mm 2 mps 737 mmHg 94%
    03:00 +7°C° 0 mm 2 mps 737 mmHg 94%
    04:00 +6°C° 0 mm 2 mps 737 mmHg 94%
    05:00 +6°C° 0 mm 2 mps 737 mmHg 91%
    06:00 +6°C° 0 mm 2 mps 738 mmHg 87%
    07:00 +5°C° 0 mm 3 mps 738 mmHg 84%
    08:00 +8°C° 0 mm 3 mps 738 mmHg 74%
    09:00 +10°C° 0 mm 2 mps 739 mmHg 64%
    10:00 +13°C° 0 mm 2 mps 739 mmHg 54%
    11:00 +14°C° 0 mm 3 mps 739 mmHg 50%
    12:00 +16°C° 0 mm 3 mps 738 mmHg 45%
    13:00 +17°C° 0 mm 3 mps 738 mmHg 41%
    14:00 +17°C° 0 mm 3 mps 738 mmHg 41%
    15:00 +18°C° 0 mm 3 mps 737 mmHg 41%
    16:00 +18°C° 0 mm 3 mps 737 mmHg 41%
    17:00 +16°C° 0 mm 3 mps 737 mmHg 49%
    18:00 +14°C° 0 mm 2 mps 737 mmHg 56%
    19:00 +12°C° 0 mm 2 mps 737 mmHg 63%
    20:00 +10°C° 0 mm 1 mps 738 mmHg 64%
    21:00 +9°C° 0 mm 1 mps 738 mmHg 65%
    22:00 +8°C° 0 mm 1 mps 738 mmHg 66%
    23:00 +6°C° 0 mm 0 mps 738 mmHg 66%

    25 April, Thursday

    Time Temperature Precipitation Wind Pressure Humidity
    00:00 +6°C° 0 mm 0 mps 738 mmHg 66%
    01:00 +5°C° 0 mm 0 mps 738 mmHg 65%
    02:00 +5°C° 0 mm 0 mps 738 mmHg 65%
    03:00 +5°C° 0 mm 0 mps 738 mmHg 65%
    04:00 +5°C° 0 mm 0 mps 737 mmHg 65%
    05:00 +7°C° 0 mm 1 mps 738 mmHg 64%
    06:00 +8°C° 0 mm 1 mps 738 mmHg 63%
    07:00 +9°C° 0 mm 1 mps 739 mmHg 62%
    08:00 +12°C° 0 mm 1 mps 738 mmHg 56%
    09:00 +14°C° 0 mm 1 mps 738 mmHg 50%
    10:00 +18°C° 0 mm 1 mps 738 mmHg 44%
    11:00 +19°C° 0 mm 2 mps 738 mmHg 42%
    12:00 +20°C° 0 mm 2 mps 737 mmHg 39%
    13:00 +21°C° 0 mm 2 mps 737 mmHg 37%
    14:00 +21°C° 0 mm 2 mps 736 mmHg 38%
    15:00 +21°C° 0 mm 2 mps 736 mmHg 40%
    16:00 +21°C° 0 mm 2 mps 735 mmHg 41%
    17:00 +19°C° 0 mm 2 mps 735 mmHg 50%
    18:00 +18°C° 0 mm 1 mps 735 mmHg 58%
    19:00 +15°C° 0 mm 1 mps 735 mmHg 67%
    20:00 +14°C° 0 mm 1 mps 735 mmHg 68%
    21:00 +14°C° 0 mm 1 mps 735 mmHg 70%
    22:00 +13°C° 0 mm 1 mps 735 mmHg 72%
    23:00 +13°C° 0 mm 1 mps 734 mmHg 72%

    26 April, Friday

    Time Temperature Precipitation Wind Pressure Humidity
    00:00 +12°C° 0 mm 1 mps 734 mmHg 73%
    01:00 +12°C° 0 mm 1 mps 734 mmHg 74%
    02:00 +12°C° 0 mm 1 mps 734 mmHg 76%
    03:00 +10°C° 0 mm 2 mps 734 mmHg 78%
    04:00 +10°C° 0 mm 2 mps 734 mmHg 80%
    05:00 +10°C° 0.1 mm 2 mps 734 mmHg 83%
    06:00 +10°C° 0.1 mm 3 mps 735 mmHg 87%
    07:00 +10°C° 0.1 mm 3 mps 735 mmHg 90%
    08:00 +12°C° 0 mm 3 mps 736 mmHg 77%
    09:00 +14°C° 0 mm 4 mps 736 mmHg 64%
    10:00 +15°C° 0 mm 4 mps 737 mmHg 51%
    11:00 +17°C° 0 mm 4 mps 737 mmHg 47%
    12:00 +18°C° 0 mm 4 mps 737 mmHg 42%
    13:00 +19°C° 0 mm 4 mps 737 mmHg 38%
    14:00 +19°C° 0 mm 4 mps 737 mmHg 39%
    15:00 +19°C° 0 mm 4 mps 737 mmHg 39%
    16:00 +19°C° 0 mm 4 mps 737 mmHg 40%
    17:00 +17°C° 0 mm 3 mps 737 mmHg 48%
    18:00 +14°C° 0 mm 3 mps 738 mmHg 55%
    19:00 +13°C° 0 mm 2 mps 738 mmHg 63%
    20:00 +12°C° 0 mm 2 mps 738 mmHg 64%
    21:00 +10°C° 0 mm 2 mps 739 mmHg 65%
    22:00 +9°C° 0 mm 2 mps 739 mmHg 66%
    23:00 +8°C° 0 mm 2 mps 740 mmHg 68%

    27 April, Saturday

    Time Temperature Precipitation Wind Pressure Humidity
    00:00 +7°C° 0 mm 2 mps 740 mmHg 69%
    01:00 +6°C° 0 mm 2 mps 740 mmHg 70%
    02:00 +6°C° 0 mm 1 mps 740 mmHg 68%
    03:00 +5°C° 0 mm 1 mps 741 mmHg 67%
    04:00 +4°C° 0 mm 1 mps 741 mmHg 65%
    05:00 +5°C° 0 mm 1 mps 741 mmHg 63%
    06:00 +6°C° 0 mm 1 mps 742 mmHg 61%
    07:00 +7°C° 0 mm 1 mps 742 mmHg 58%
    08:00 +9°C° 0 mm 1 mps 742 mmHg 51%
    09:00 +12°C° 0 mm 1 mps 742 mmHg 43%
    10:00 +15°C° 0 mm 1 mps 741 mmHg 35%
    11:00 +16°C° 0 mm 1 mps 741 mmHg 33%
    12:00 +19°C° 0 mm 1 mps 741 mmHg 31%
    13:00 +20°C° 0 mm 1 mps 740 mmHg 29%
    14:00 +20°C° 0 mm 1 mps 740 mmHg 30%
    15:00 +18°C° 0 mm 0 mps 739 mmHg 31%
    16:00 +18°C° 0 mm 0 mps 739 mmHg 32%
    17:00 +18°C° 0 mm 1 mps 739 mmHg 37%
    18:00 +15°C° 0 mm 1 mps 738 mmHg 43%
    19:00 +13°C° 0 mm 2 mps 738 mmHg 48%
    20:00 +13°C° 0 mm 2 mps 738 mmHg 49%
    21:00 +13°C° 0 mm 2 mps 738 mmHg 49%
    22:00 +11°C° 0 mm 3 mps 738 mmHg 49%
    23:00 +11°C° 0 mm 3 mps 737 mmHg 48%
    Show more